#datetime,building,power
2023-11-14T00:00:00,atd,20.92
2023-11-14T00:01:00,atd,19.38
2023-11-14T00:02:00,atd,21.05
2023-11-14T00:03:00,atd,22.57
2023-11-14T00:04:00,atd,21.10
2023-11-14T00:05:00,atd,33.58
2023-11-14T00:06:00,atd,34.02
2023-11-14T00:07:00,atd,38.97
2023-11-14T00:08:00,atd,36.92
2023-11-14T00:09:00,atd,26.33
2023-11-14T00:10:00,atd,24.78
2023-11-14T00:11:00,atd,24.58
2023-11-14T00:12:00,atd,22.42
2023-11-14T00:13:00,atd,24.85
2023-11-14T00:14:00,atd,28.72
2023-11-14T00:15:00,atd,28.53
2023-11-14T00:16:00,atd,28.08
2023-11-14T00:17:00,atd,23.73
2023-11-14T00:18:00,atd,21.20
2023-11-14T00:19:00,atd,23.89
2023-11-14T00:20:00,atd,21.76
2023-11-14T00:21:00,atd,24.86
2023-11-14T00:22:00,atd,23.91
2023-11-14T00:23:00,atd,28.28
2023-11-14T00:24:00,atd,27.68
2023-11-14T00:25:00,atd,24.27
2023-11-14T00:26:00,atd,27.69
2023-11-14T00:27:00,atd,30.17
2023-11-14T00:28:00,atd,23.12
2023-11-14T00:29:00,atd,20.14
2023-11-14T00:30:00,atd,19.79
2023-11-14T00:31:00,atd,22.29
2023-11-14T00:32:00,atd,22.69
2023-11-14T00:33:00,atd,21.95
2023-11-14T00:34:00,atd,20.48
2023-11-14T00:35:00,atd,21.80
2023-11-14T00:36:00,atd,26.47
2023-11-14T00:37:00,atd,27.78
2023-11-14T00:38:00,atd,22.91
2023-11-14T00:39:00,atd,27.70
2023-11-14T00:40:00,atd,23.82
2023-11-14T00:41:00,atd,22.36
2023-11-14T00:42:00,atd,20.53
2023-11-14T00:43:00,atd,23.66
2023-11-14T00:44:00,atd,23.75
2023-11-14T00:45:00,atd,25.80
2023-11-14T00:46:00,atd,21.63
2023-11-14T00:47:00,atd,20.67
2023-11-14T00:48:00,atd,20.73
2023-11-14T00:49:00,atd,16.58
2023-11-14T00:50:00,atd,16.14
2023-11-14T00:51:00,atd,17.08
2023-11-14T00:52:00,atd,21.65
2023-11-14T00:53:00,atd,19.99
2023-11-14T00:54:00,atd,21.91
2023-11-14T00:55:00,atd,22.79
2023-11-14T00:56:00,atd,22.25
2023-11-14T00:57:00,atd,21.89
2023-11-14T00:58:00,atd,24.34
2023-11-14T00:59:00,atd,24.65
2023-11-14T01:00:00,atd,21.93
2023-11-14T01:01:00,atd,23.26
2023-11-14T01:02:00,atd,22.64
2023-11-14T01:03:00,atd,26.23
2023-11-14T01:04:00,atd,24.45
2023-11-14T01:05:00,atd,22.82
2023-11-14T01:06:00,atd,24.71
2023-11-14T01:07:00,atd,24.75
2023-11-14T01:08:00,atd,24.12
2023-11-14T01:09:00,atd,23.98
2023-11-14T01:10:00,atd,24.27
2023-11-14T01:11:00,atd,23.66
2023-11-14T01:12:00,atd,28.37
2023-11-14T01:13:00,atd,27.19
2023-11-14T01:14:00,atd,26.74
2023-11-14T01:15:00,atd,28.07
2023-11-14T01:16:00,atd,29.15
2023-11-14T01:17:00,atd,23.64
2023-11-14T01:18:00,atd,26.56
2023-11-14T01:19:00,atd,26.33
2023-11-14T01:20:00,atd,28.54
2023-11-14T01:21:00,atd,23.01
2023-11-14T01:22:00,atd,20.21
2023-11-14T01:23:00,atd,19.53
2023-11-14T01:24:00,atd,18.71
2023-11-14T01:25:00,atd,21.49
2023-11-14T01:26:00,atd,23.71
2023-11-14T01:27:00,atd,23.76
2023-11-14T01:28:00,atd,25.17
2023-11-14T01:29:00,atd,22.92
2023-11-14T01:30:00,atd,25.88
2023-11-14T01:31:00,atd,26.79
2023-11-14T01:32:00,atd,22.83
2023-11-14T01:33:00,atd,21.86
2023-11-14T01:34:00,atd,21.84
2023-11-14T01:35:00,atd,21.72
2023-11-14T01:36:00,atd,28.05
2023-11-14T01:37:00,atd,26.48
2023-11-14T01:38:00,atd,26.21
2023-11-14T01:39:00,atd,24.05
2023-11-14T01:40:00,atd,21.67
2023-11-14T01:41:00,atd,25.88
2023-11-14T01:42:00,atd,22.87
2023-11-14T01:43:00,atd,35.09
2023-11-14T01:44:00,atd,21.79
2023-11-14T01:45:00,atd,22.12
2023-11-14T01:46:00,atd,24.29
2023-11-14T01:47:00,atd,20.99
2023-11-14T01:48:00,atd,21.56
2023-11-14T01:49:00,atd,21.52
2023-11-14T01:50:00,atd,23.68
2023-11-14T01:51:00,atd,25.54
2023-11-14T01:52:00,atd,22.74
2023-11-14T01:53:00,atd,24.63
2023-11-14T01:54:00,atd,24.11
2023-11-14T01:55:00,atd,22.48
2023-11-14T01:56:00,atd,25.51
2023-11-14T01:57:00,atd,23.86
2023-11-14T01:58:00,atd,25.36
2023-11-14T01:59:00,atd,26.95
2023-11-14T02:00:00,atd,25.62
2023-11-14T02:01:00,atd,25.00
2023-11-14T02:02:00,atd,20.71
2023-11-14T02:03:00,atd,33.37
2023-11-14T02:04:00,atd,21.65
2023-11-14T02:05:00,atd,20.66
2023-11-14T02:06:00,atd,21.18
2023-11-14T02:07:00,atd,20.54
2023-11-14T02:08:00,atd,22.07
2023-11-14T02:09:00,atd,20.06
2023-11-14T02:10:00,atd,25.07
2023-11-14T02:11:00,atd,22.78
2023-11-14T02:12:00,atd,26.57
2023-11-14T02:13:00,atd,25.68
2023-11-14T02:14:00,atd,23.95
2023-11-14T02:15:00,atd,24.34
2023-11-14T02:16:00,atd,25.45
2023-11-14T02:17:00,atd,20.19
2023-11-14T02:18:00,atd,20.71
2023-11-14T02:19:00,atd,20.31
2023-11-14T02:20:00,atd,20.60
2023-11-14T02:21:00,atd,30.72
2023-11-14T02:22:00,atd,32.63
2023-11-14T02:23:00,atd,30.16
2023-11-14T02:24:00,atd,33.30
2023-11-14T02:25:00,atd,25.45
2023-11-14T02:26:00,atd,23.20
2023-11-14T02:27:00,atd,23.53
2023-11-14T02:28:00,atd,24.33
2023-11-14T02:29:00,atd,22.32
2023-11-14T02:30:00,atd,23.38
2023-11-14T02:31:00,atd,27.47
2023-11-14T02:32:00,atd,24.52
2023-11-14T02:33:00,atd,22.58
2023-11-14T02:34:00,atd,19.95
2023-11-14T02:35:00,atd,21.02
2023-11-14T02:36:00,atd,21.14
2023-11-14T02:37:00,atd,22.27
2023-11-14T02:38:00,atd,23.01
2023-11-14T02:39:00,atd,21.38
2023-11-14T02:40:00,atd,27.32
2023-11-14T02:41:00,atd,24.51
2023-11-14T02:42:00,atd,25.35
2023-11-14T02:43:00,atd,27.23
2023-11-14T02:44:00,atd,26.20
2023-11-14T02:45:00,atd,35.20
2023-11-14T02:46:00,atd,21.54
2023-11-14T02:47:00,atd,25.59
2023-11-14T02:48:00,atd,24.50
2023-11-14T02:49:00,atd,18.66
2023-11-14T02:50:00,atd,20.46
2023-11-14T02:51:00,atd,18.77
2023-11-14T02:52:00,atd,20.73
2023-11-14T02:53:00,atd,21.80
2023-11-14T02:54:00,atd,25.85
2023-11-14T02:55:00,atd,21.95
2023-11-14T02:56:00,atd,21.23
2023-11-14T02:57:00,atd,18.68
2023-11-14T02:58:00,atd,21.20
2023-11-14T02:59:00,atd,24.26
2023-11-14T03:00:00,atd,24.87
2023-11-14T03:01:00,atd,24.91
2023-11-14T03:02:00,atd,24.04
2023-11-14T03:03:00,atd,26.12
2023-11-14T03:04:00,atd,22.23
2023-11-14T03:05:00,atd,34.56
2023-11-14T03:06:00,atd,27.42
2023-11-14T03:07:00,atd,26.16
2023-11-14T03:08:00,atd,24.30
2023-11-14T03:09:00,atd,24.75
2023-11-14T03:10:00,atd,23.43
2023-11-14T03:11:00,atd,27.63
2023-11-14T03:12:00,atd,26.50
2023-11-14T03:13:00,atd,22.89
2023-11-14T03:14:00,atd,24.22
2023-11-14T03:15:00,atd,23.71
2023-11-14T03:16:00,atd,24.37
2023-11-14T03:17:00,atd,22.16
2023-11-14T03:18:00,atd,22.27
2023-11-14T03:19:00,atd,22.05
2023-11-14T03:20:00,atd,25.15
2023-11-14T03:21:00,atd,18.15
2023-11-14T03:22:00,atd,19.49
2023-11-14T03:23:00,atd,23.82
2023-11-14T03:24:00,atd,21.93
2023-11-14T03:25:00,atd,31.86
2023-11-14T03:26:00,atd,19.41
2023-11-14T03:27:00,atd,20.13
2023-11-14T03:28:00,atd,20.44
2023-11-14T03:29:00,atd,34.84
2023-11-14T03:30:00,atd,33.13
2023-11-14T03:31:00,atd,34.85
2023-11-14T03:32:00,atd,25.11
2023-11-14T03:33:00,atd,25.32
2023-11-14T03:34:00,atd,25.90
2023-11-14T03:35:00,atd,25.32
2023-11-14T03:36:00,atd,25.63
2023-11-14T03:37:00,atd,19.12
2023-11-14T03:38:00,atd,22.85
2023-11-14T03:39:00,atd,21.73
2023-11-14T03:40:00,atd,23.25
2023-11-14T03:41:00,atd,20.03
2023-11-14T03:42:00,atd,20.03
2023-11-14T03:43:00,atd,23.83
2023-11-14T03:44:00,atd,20.43
2023-11-14T03:45:00,atd,32.15
2023-11-14T03:46:00,atd,20.29
2023-11-14T03:47:00,atd,26.61
2023-11-14T03:48:00,atd,23.71
2023-11-14T03:49:00,atd,25.65
2023-11-14T03:50:00,atd,25.63
2023-11-14T03:51:00,atd,25.37
2023-11-14T03:52:00,atd,27.57
2023-11-14T03:53:00,atd,22.33
2023-11-14T03:54:00,atd,23.06
2023-11-14T03:55:00,atd,22.64
2023-11-14T03:56:00,atd,23.31
2023-11-14T03:57:00,atd,22.22
2023-11-14T03:58:00,atd,18.65
2023-11-14T03:59:00,atd,21.62
2023-11-14T04:00:00,atd,19.16
2023-11-14T04:01:00,atd,18.55
2023-11-14T04:02:00,atd,20.93
2023-11-14T04:03:00,atd,20.22
2023-11-14T04:04:00,atd,25.23
2023-11-14T04:05:00,atd,26.63
2023-11-14T04:06:00,atd,25.01
2023-11-14T04:07:00,atd,23.28
2023-11-14T04:08:00,atd,25.62
2023-11-14T04:09:00,atd,20.50
2023-11-14T04:10:00,atd,22.61
2023-11-14T04:11:00,atd,21.02
2023-11-14T04:12:00,atd,19.12
2023-11-14T04:13:00,atd,16.67
2023-11-14T04:14:00,atd,19.48
2023-11-14T04:15:00,atd,20.28
2023-11-14T04:16:00,atd,23.64
2023-11-14T04:17:00,atd,24.00
2023-11-14T04:18:00,atd,19.48
2023-11-14T04:19:00,atd,25.16
2023-11-14T04:20:00,atd,27.32
2023-11-14T04:21:00,atd,28.10
2023-11-14T04:22:00,atd,27.06
2023-11-14T04:23:00,atd,28.39
2023-11-14T04:24:00,atd,30.66
2023-11-14T04:25:00,atd,35.17
2023-11-14T04:26:00,atd,23.78
2023-11-14T04:27:00,atd,25.01
2023-11-14T04:28:00,atd,25.53
2023-11-14T04:29:00,atd,20.13
2023-11-14T04:30:00,atd,19.57
2023-11-14T04:31:00,atd,21.24
2023-11-14T04:32:00,atd,21.12
2023-11-14T04:33:00,atd,25.13
2023-11-14T04:34:00,atd,27.45
2023-11-14T04:35:00,atd,28.06
2023-11-14T04:36:00,atd,29.56
2023-11-14T04:37:00,atd,34.17
2023-11-14T04:38:00,atd,25.12
2023-11-14T04:39:00,atd,26.29
2023-11-14T04:40:00,atd,25.88
2023-11-14T04:41:00,atd,27.69
2023-11-14T04:42:00,atd,21.98
2023-11-14T04:43:00,atd,22.29
2023-11-14T04:44:00,atd,22.27
2023-11-14T04:45:00,atd,33.61
2023-11-14T04:46:00,atd,25.83
2023-11-14T04:47:00,atd,23.51
2023-11-14T04:48:00,atd,27.17
2023-11-14T04:49:00,atd,24.60
2023-11-14T04:50:00,atd,20.90
2023-11-14T04:51:00,atd,22.12
2023-11-14T04:52:00,atd,25.18
2023-11-14T04:53:00,atd,29.64
2023-11-14T04:54:00,atd,23.66
2023-11-14T04:55:00,atd,23.16
2023-11-14T04:56:00,atd,23.77
2023-11-14T04:57:00,atd,23.80
2023-11-14T04:58:00,atd,24.35
2023-11-14T04:59:00,atd,22.48
2023-11-14T05:00:00,atd,21.49
2023-11-14T05:01:00,atd,24.14
2023-11-14T05:02:00,atd,22.66
2023-11-14T05:03:00,atd,25.54
2023-11-14T05:04:00,atd,23.99
2023-11-14T05:05:00,atd,34.19
2023-11-14T05:06:00,atd,19.95
2023-11-14T05:07:00,atd,19.78
2023-11-14T05:08:00,atd,21.05
2023-11-14T05:09:00,atd,25.08
2023-11-14T05:10:00,atd,24.52
2023-11-14T05:11:00,atd,24.75
2023-11-14T05:12:00,atd,23.99
2023-11-14T05:13:00,atd,26.58
2023-11-14T05:14:00,atd,25.28
2023-11-14T05:15:00,atd,22.89
2023-11-14T05:16:00,atd,22.60
2023-11-14T05:17:00,atd,22.91
2023-11-14T05:18:00,atd,23.49
2023-11-14T05:19:00,atd,22.31
2023-11-14T05:20:00,atd,30.87
2023-11-14T05:21:00,atd,26.65
2023-11-14T05:22:00,atd,26.18
2023-11-14T05:23:00,atd,24.37
2023-11-14T05:24:00,atd,23.78
2023-11-14T05:25:00,atd,24.13
2023-11-14T05:26:00,atd,29.99
2023-11-14T05:27:00,atd,38.39
2023-11-14T05:28:00,atd,26.10
2023-11-14T05:29:00,atd,26.26
2023-11-14T05:30:00,atd,23.71
2023-11-14T05:31:00,atd,27.98
2023-11-14T05:32:00,atd,36.19
2023-11-14T05:33:00,atd,44.29
2023-11-14T05:34:00,atd,52.75
2023-11-14T05:35:00,atd,49.57
2023-11-14T05:36:00,atd,48.01
2023-11-14T05:37:00,atd,52.57
2023-11-14T05:38:00,atd,44.08
2023-11-14T05:39:00,atd,42.30
2023-11-14T05:40:00,atd,36.97
2023-11-14T05:41:00,atd,37.73
2023-11-14T05:42:00,atd,41.19
2023-11-14T05:43:00,atd,44.97
2023-11-14T05:44:00,atd,50.03
2023-11-14T05:45:00,atd,48.71
2023-11-14T05:46:00,atd,46.18
2023-11-14T05:47:00,atd,57.06
2023-11-14T05:48:00,atd,45.42
2023-11-14T05:49:00,atd,47.90
2023-11-14T05:50:00,atd,45.71
2023-11-14T05:51:00,atd,44.53
2023-11-14T05:52:00,atd,43.48
2023-11-14T05:53:00,atd,44.16
2023-11-14T05:54:00,atd,45.70
2023-11-14T05:55:00,atd,43.35
2023-11-14T05:56:00,atd,45.97
2023-11-14T05:57:00,atd,48.49
2023-11-14T05:58:00,atd,49.20
2023-11-14T05:59:00,atd,48.73
2023-11-14T06:00:00,atd,55.16
2023-11-14T06:01:00,atd,52.68
2023-11-14T06:02:00,atd,62.72
2023-11-14T06:03:00,atd,68.99
2023-11-14T06:04:00,atd,64.63
2023-11-14T06:05:00,atd,66.48
2023-11-14T06:06:00,atd,72.84
2023-11-14T06:07:00,atd,68.42
2023-11-14T06:08:00,atd,67.26
2023-11-14T06:09:00,atd,80.59
2023-11-14T06:10:00,atd,73.74
2023-11-14T06:11:00,atd,59.16
2023-11-14T06:12:00,atd,72.40
2023-11-14T06:13:00,atd,63.56
2023-11-14T06:14:00,atd,65.15
2023-11-14T06:15:00,atd,76.87
2023-11-14T06:16:00,atd,75.81
2023-11-14T06:17:00,atd,66.88
2023-11-14T06:18:00,atd,68.95
2023-11-14T06:19:00,atd,67.34
2023-11-14T06:20:00,atd,63.99
2023-11-14T06:21:00,atd,70.61
2023-11-14T06:22:00,atd,61.03
2023-11-14T06:23:00,atd,71.63
2023-11-14T06:24:00,atd,61.45
2023-11-14T06:25:00,atd,67.51
2023-11-14T06:26:00,atd,66.72
2023-11-14T06:27:00,atd,62.42
2023-11-14T06:28:00,atd,67.46
2023-11-14T06:29:00,atd,65.59
2023-11-14T06:30:00,atd,59.41
2023-11-14T06:31:00,atd,61.36
2023-11-14T06:32:00,atd,56.56
2023-11-14T06:33:00,atd,56.75
2023-11-14T06:34:00,atd,61.30
2023-11-14T06:35:00,atd,58.65
2023-11-14T06:36:00,atd,56.61
2023-11-14T06:37:00,atd,57.29
2023-11-14T06:38:00,atd,58.59
2023-11-14T06:39:00,atd,56.92
2023-11-14T06:40:00,atd,54.63
2023-11-14T06:41:00,atd,64.20
2023-11-14T06:42:00,atd,53.70
2023-11-14T06:43:00,atd,55.09
2023-11-14T06:44:00,atd,50.36
2023-11-14T06:45:00,atd,52.53
2023-11-14T06:46:00,atd,43.51
2023-11-14T06:47:00,atd,49.31
2023-11-14T06:48:00,atd,42.95
2023-11-14T06:49:00,atd,47.71
2023-11-14T06:50:00,atd,47.16
2023-11-14T06:51:00,atd,46.01
2023-11-14T06:52:00,atd,43.40
2023-11-14T06:53:00,atd,46.36
2023-11-14T06:54:00,atd,48.36
2023-11-14T06:55:00,atd,54.57
2023-11-14T06:56:00,atd,47.13
2023-11-14T06:57:00,atd,44.47
2023-11-14T06:58:00,atd,47.93
2023-11-14T06:59:00,atd,49.87
2023-11-14T07:00:00,atd,41.78
2023-11-14T07:01:00,atd,54.15
2023-11-14T07:02:00,atd,42.63
2023-11-14T07:03:00,atd,48.95
2023-11-14T07:04:00,atd,49.20
2023-11-14T07:05:00,atd,45.66
2023-11-14T07:06:00,atd,46.91
2023-11-14T07:07:00,atd,38.79
2023-11-14T07:08:00,atd,43.15
2023-11-14T07:09:00,atd,34.68
2023-11-14T07:10:00,atd,45.00
2023-11-14T07:11:00,atd,39.05
2023-11-14T07:12:00,atd,70.97
2023-11-14T07:13:00,atd,52.87
2023-11-14T07:14:00,atd,51.89
2023-11-14T07:15:00,atd,55.61
2023-11-14T07:16:00,atd,55.10
2023-11-14T07:17:00,atd,42.58
2023-11-14T07:18:00,atd,50.10
2023-11-14T07:19:00,atd,46.62
2023-11-14T07:20:00,atd,50.70
2023-11-14T07:21:00,atd,43.04
2023-11-14T07:22:00,atd,52.37
2023-11-14T07:23:00,atd,63.59
2023-11-14T07:24:00,atd,50.23
2023-11-14T07:25:00,atd,46.10
2023-11-14T07:26:00,atd,40.03
2023-11-14T07:27:00,atd,49.46
2023-11-14T07:28:00,atd,50.75
2023-11-14T07:29:00,atd,50.99
2023-11-14T07:30:00,atd,48.26
2023-11-14T07:31:00,atd,48.76
2023-11-14T07:32:00,atd,51.20
2023-11-14T07:33:00,atd,44.38
2023-11-14T07:34:00,atd,62.29
2023-11-14T07:35:00,atd,57.12
2023-11-14T07:36:00,atd,62.18
2023-11-14T07:37:00,atd,62.37
2023-11-14T07:38:00,atd,46.33
2023-11-14T07:39:00,atd,46.63
2023-11-14T07:40:00,atd,51.56
2023-11-14T07:41:00,atd,51.25
2023-11-14T07:42:00,atd,45.83
2023-11-14T07:43:00,atd,49.36
2023-11-14T07:44:00,atd,50.48
2023-11-14T07:45:00,atd,48.70
2023-11-14T07:46:00,atd,51.12
2023-11-14T07:47:00,atd,42.31
2023-11-14T07:48:00,atd,46.25
2023-11-14T07:49:00,atd,38.16
2023-11-14T07:50:00,atd,56.46
2023-11-14T07:51:00,atd,55.47
2023-11-14T07:52:00,atd,51.51
2023-11-14T07:53:00,atd,67.39
2023-11-14T07:54:00,atd,48.33
2023-11-14T07:55:00,atd,50.00
2023-11-14T07:56:00,atd,44.06
2023-11-14T07:57:00,atd,49.49
2023-11-14T07:58:00,atd,47.50
2023-11-14T07:59:00,atd,46.76
2023-11-14T08:00:00,atd,47.89
2023-11-14T08:01:00,atd,53.16
2023-11-14T08:02:00,atd,54.57
2023-11-14T08:03:00,atd,49.16
2023-11-14T08:04:00,atd,42.93
2023-11-14T08:05:00,atd,52.94
2023-11-14T08:06:00,atd,66.54
2023-11-14T08:07:00,atd,40.36
2023-11-14T08:08:00,atd,51.19
2023-11-14T08:09:00,atd,43.84
2023-11-14T08:10:00,atd,50.63
2023-11-14T08:11:00,atd,48.32
2023-11-14T08:12:00,atd,51.42
2023-11-14T08:13:00,atd,53.08
2023-11-14T08:14:00,atd,44.60
2023-11-14T08:15:00,atd,51.69
2023-11-14T08:16:00,atd,51.51
2023-11-14T08:17:00,atd,52.74
2023-11-14T08:18:00,atd,51.23
2023-11-14T08:19:00,atd,46.76
2023-11-14T08:20:00,atd,68.74
2023-11-14T08:21:00,atd,50.65
2023-11-14T08:22:00,atd,51.64
2023-11-14T08:23:00,atd,47.79
2023-11-14T08:24:00,atd,51.17
2023-11-14T08:25:00,atd,54.79
2023-11-14T08:26:00,atd,51.31
2023-11-14T08:27:00,atd,53.91
2023-11-14T08:28:00,atd,54.72
2023-11-14T08:29:00,atd,63.37
2023-11-14T08:30:00,atd,71.04
2023-11-14T08:31:00,atd,58.69
2023-11-14T08:32:00,atd,69.96
2023-11-14T08:33:00,atd,66.02
2023-11-14T08:34:00,atd,63.95
2023-11-14T08:35:00,atd,63.35
2023-11-14T08:36:00,atd,73.63
2023-11-14T08:37:00,atd,57.04
2023-11-14T08:38:00,atd,75.87
2023-11-14T08:39:00,atd,75.38
2023-11-14T08:40:00,atd,77.44
2023-11-14T08:41:00,atd,74.92
2023-11-14T08:42:00,atd,78.16
2023-11-14T08:43:00,atd,70.15
2023-11-14T08:44:00,atd,72.38
2023-11-14T08:45:00,atd,65.08
2023-11-14T08:46:00,atd,69.33
2023-11-14T08:47:00,atd,72.93
2023-11-14T08:48:00,atd,64.18
2023-11-14T08:49:00,atd,61.30
2023-11-14T08:50:00,atd,64.66
2023-11-14T08:51:00,atd,63.92
2023-11-14T08:52:00,atd,69.43
2023-11-14T08:53:00,atd,74.02
2023-11-14T08:54:00,atd,73.99
2023-11-14T08:55:00,atd,67.50
2023-11-14T08:56:00,atd,61.23
2023-11-14T08:57:00,atd,69.67
2023-11-14T08:58:00,atd,65.58
2023-11-14T08:59:00,atd,68.40
2023-11-14T09:00:00,atd,58.24
2023-11-14T09:01:00,atd,64.42
2023-11-14T09:02:00,atd,61.82
2023-11-14T09:03:00,atd,67.33
2023-11-14T09:04:00,atd,63.38
2023-11-14T09:05:00,atd,71.13
2023-11-14T09:06:00,atd,67.95
2023-11-14T09:07:00,atd,64.00
2023-11-14T09:08:00,atd,73.04
2023-11-14T09:09:00,atd,68.43
2023-11-14T09:10:00,atd,74.68
2023-11-14T09:11:00,atd,79.22
2023-11-14T09:12:00,atd,72.23
2023-11-14T09:13:00,atd,74.25
2023-11-14T09:14:00,atd,66.59
2023-11-14T09:15:00,atd,104.16
2023-11-14T09:16:00,atd,86.51
2023-11-14T09:17:00,atd,83.32
2023-11-14T09:18:00,atd,92.08
2023-11-14T09:19:00,atd,92.76
2023-11-14T09:20:00,atd,82.80
2023-11-14T09:21:00,atd,77.67
2023-11-14T09:22:00,atd,86.21
2023-11-14T09:23:00,atd,84.59
2023-11-14T09:24:00,atd,84.08
2023-11-14T09:25:00,atd,73.22
2023-11-14T09:26:00,atd,73.81
2023-11-14T09:27:00,atd,70.20
2023-11-14T09:28:00,atd,89.31
2023-11-14T09:29:00,atd,93.89
2023-11-14T09:30:00,atd,83.42
2023-11-14T09:31:00,atd,80.84
2023-11-14T09:32:00,atd,73.32
2023-11-14T09:33:00,atd,81.59
2023-11-14T09:34:00,atd,89.40
2023-11-14T09:35:00,atd,87.97
2023-11-14T09:36:00,atd,85.23
2023-11-14T09:37:00,atd,78.94
2023-11-14T09:38:00,atd,80.61
2023-11-14T09:39:00,atd,76.89
2023-11-14T09:40:00,atd,80.75
2023-11-14T09:41:00,atd,88.93
2023-11-14T09:42:00,atd,76.28
2023-11-14T09:43:00,atd,81.51
2023-11-14T09:44:00,atd,81.86
2023-11-14T09:45:00,atd,84.36
2023-11-14T09:46:00,atd,89.68
2023-11-14T09:47:00,atd,75.92
2023-11-14T09:48:00,atd,70.74
2023-11-14T09:49:00,atd,73.62
2023-11-14T09:50:00,atd,68.79
2023-11-14T09:51:00,atd,71.08
2023-11-14T09:52:00,atd,73.34
2023-11-14T09:53:00,atd,73.38
2023-11-14T09:54:00,atd,76.07
2023-11-14T09:55:00,atd,64.14
2023-11-14T09:56:00,atd,70.14
2023-11-14T09:57:00,atd,65.04
2023-11-14T09:58:00,atd,70.52
2023-11-14T09:59:00,atd,71.77
2023-11-14T10:00:00,atd,70.20
2023-11-14T10:01:00,atd,88.02
2023-11-14T10:02:00,atd,63.73
2023-11-14T10:03:00,atd,71.30
2023-11-14T10:04:00,atd,74.30
2023-11-14T10:05:00,atd,70.81
2023-11-14T10:06:00,atd,72.22
2023-11-14T10:07:00,atd,63.93
2023-11-14T10:08:00,atd,68.80
2023-11-14T10:09:00,atd,70.10
2023-11-14T10:10:00,atd,60.11
2023-11-14T10:11:00,atd,68.81
2023-11-14T10:12:00,atd,61.67
2023-11-14T10:13:00,atd,66.26
2023-11-14T10:14:00,atd,63.71
2023-11-14T10:15:00,atd,63.23
2023-11-14T10:16:00,atd,85.97
2023-11-14T10:17:00,atd,71.84
2023-11-14T10:18:00,atd,77.51
2023-11-14T10:19:00,atd,77.37
2023-11-14T10:20:00,atd,72.14
2023-11-14T10:21:00,atd,78.45
2023-11-14T10:22:00,atd,69.44
2023-11-14T10:23:00,atd,76.90
2023-11-14T10:24:00,atd,63.17
2023-11-14T10:25:00,atd,74.16
2023-11-14T10:26:00,atd,66.48
2023-11-14T10:27:00,atd,72.41
2023-11-14T10:28:00,atd,71.19
2023-11-14T10:29:00,atd,62.58
2023-11-14T10:30:00,atd,68.36
2023-11-14T10:31:00,atd,57.25
2023-11-14T10:32:00,atd,61.55
2023-11-14T10:33:00,atd,62.36
2023-11-14T10:34:00,atd,64.92
2023-11-14T10:35:00,atd,64.31
2023-11-14T10:36:00,atd,68.07
2023-11-14T10:37:00,atd,68.54
2023-11-14T10:38:00,atd,73.29
2023-11-14T10:39:00,atd,73.26
2023-11-14T10:40:00,atd,78.03
2023-11-14T10:41:00,atd,64.45
2023-11-14T10:42:00,atd,59.08
2023-11-14T10:43:00,atd,67.10
2023-11-14T10:44:00,atd,62.06
2023-11-14T10:45:00,atd,63.59
2023-11-14T10:46:00,atd,69.90
2023-11-14T10:47:00,atd,62.41
2023-11-14T10:48:00,atd,69.18
2023-11-14T10:49:00,atd,71.04
2023-11-14T10:50:00,atd,70.53
2023-11-14T10:51:00,atd,75.27
2023-11-14T10:52:00,atd,69.31
2023-11-14T10:53:00,atd,80.09
2023-11-14T10:54:00,atd,80.53
2023-11-14T10:55:00,atd,71.10
2023-11-14T10:56:00,atd,85.75
2023-11-14T10:57:00,atd,72.94
2023-11-14T10:58:00,atd,84.09
2023-11-14T10:59:00,atd,72.16
2023-11-14T11:00:00,atd,63.17
2023-11-14T11:01:00,atd,78.47
2023-11-14T11:02:00,atd,76.62
2023-11-14T11:03:00,atd,59.78
2023-11-14T11:04:00,atd,57.93
2023-11-14T11:05:00,atd,74.79
2023-11-14T11:06:00,atd,70.61
2023-11-14T11:07:00,atd,77.20
2023-11-14T11:08:00,atd,63.53
2023-11-14T11:09:00,atd,73.31
2023-11-14T11:10:00,atd,69.56
2023-11-14T11:11:00,atd,65.64
2023-11-14T11:12:00,atd,70.68
2023-11-14T11:13:00,atd,67.08
2023-11-14T11:14:00,atd,72.01
2023-11-14T11:15:00,atd,75.81
2023-11-14T11:16:00,atd,87.60
2023-11-14T11:17:00,atd,74.12
2023-11-14T11:18:00,atd,65.51
2023-11-14T11:19:00,atd,51.71
2023-11-14T11:20:00,atd,59.24
2023-11-14T11:21:00,atd,61.77
2023-11-14T11:22:00,atd,57.19
2023-11-14T11:23:00,atd,56.03
2023-11-14T11:24:00,atd,50.23
2023-11-14T11:25:00,atd,56.26
2023-11-14T11:26:00,atd,60.14
2023-11-14T11:27:00,atd,60.34
2023-11-14T11:28:00,atd,65.99
2023-11-14T11:29:00,atd,55.65
2023-11-14T11:30:00,atd,59.93
2023-11-14T11:31:00,atd,64.56
2023-11-14T11:32:00,atd,62.20
2023-11-14T11:33:00,atd,68.17
2023-11-14T11:34:00,atd,72.85
2023-11-14T11:35:00,atd,68.97
2023-11-14T11:36:00,atd,76.42
2023-11-14T11:37:00,atd,74.36
2023-11-14T11:38:00,atd,77.36
2023-11-14T11:39:00,atd,76.36
2023-11-14T11:40:00,atd,79.67
2023-11-14T11:41:00,atd,79.37
2023-11-14T11:42:00,atd,72.06
2023-11-14T11:43:00,atd,82.70
2023-11-14T11:44:00,atd,78.97
2023-11-14T11:45:00,atd,89.50
2023-11-14T11:46:00,atd,82.28
2023-11-14T11:47:00,atd,85.52
2023-11-14T11:48:00,atd,84.56
2023-11-14T11:49:00,atd,84.16
2023-11-14T11:50:00,atd,73.08
2023-11-14T11:51:00,atd,75.67
2023-11-14T11:52:00,atd,87.45
2023-11-14T11:53:00,atd,70.30
2023-11-14T11:54:00,atd,94.18
2023-11-14T11:55:00,atd,74.56
2023-11-14T11:56:00,atd,82.99
2023-11-14T11:57:00,atd,75.04
2023-11-14T11:58:00,atd,73.56
2023-11-14T11:59:00,atd,70.25
2023-11-14T12:00:00,atd,81.21
2023-11-14T12:01:00,atd,73.24
2023-11-14T12:02:00,atd,65.43
2023-11-14T12:03:00,atd,73.03
2023-11-14T12:04:00,atd,65.02
2023-11-14T12:05:00,atd,81.09
2023-11-14T12:06:00,atd,80.12
2023-11-14T12:07:00,atd,82.44
2023-11-14T12:08:00,atd,90.77
2023-11-14T12:09:00,atd,102.54
2023-11-14T12:10:00,atd,72.17
2023-11-14T12:11:00,atd,75.78
2023-11-14T12:12:00,atd,82.17
2023-11-14T12:13:00,atd,71.81
2023-11-14T12:14:00,atd,74.00
2023-11-14T12:15:00,atd,71.84
2023-11-14T12:16:00,atd,88.35
2023-11-14T12:17:00,atd,82.25
2023-11-14T12:18:00,atd,76.10
2023-11-14T12:19:00,atd,76.56
2023-11-14T12:20:00,atd,76.40
2023-11-14T12:21:00,atd,78.46
2023-11-14T12:22:00,atd,76.47
2023-11-14T12:23:00,atd,73.75
2023-11-14T12:24:00,atd,71.60
2023-11-14T12:25:00,atd,73.17
2023-11-14T12:26:00,atd,82.03
2023-11-14T12:27:00,atd,99.53
2023-11-14T12:28:00,atd,92.83
2023-11-14T12:29:00,atd,78.23
2023-11-14T12:30:00,atd,80.48
2023-11-14T12:31:00,atd,75.63
2023-11-14T12:32:00,atd,71.98
2023-11-14T12:33:00,atd,75.70
2023-11-14T12:34:00,atd,75.83
2023-11-14T12:35:00,atd,76.28
2023-11-14T12:36:00,atd,86.10
2023-11-14T12:37:00,atd,80.67
2023-11-14T12:38:00,atd,74.85
2023-11-14T12:39:00,atd,76.93
2023-11-14T12:40:00,atd,83.33
2023-11-14T12:41:00,atd,70.82
2023-11-14T12:42:00,atd,81.06
2023-11-14T12:43:00,atd,70.04
2023-11-14T12:44:00,atd,76.67
2023-11-14T12:45:00,atd,86.71
2023-11-14T12:46:00,atd,87.58
2023-11-14T12:47:00,atd,74.75
2023-11-14T12:48:00,atd,63.56
2023-11-14T12:49:00,atd,82.16
2023-11-14T12:50:00,atd,71.18
2023-11-14T12:51:00,atd,73.54
2023-11-14T12:52:00,atd,72.32
2023-11-14T12:53:00,atd,79.76
2023-11-14T12:54:00,atd,63.02
2023-11-14T12:55:00,atd,75.00
2023-11-14T12:56:00,atd,62.98
2023-11-14T12:57:00,atd,72.85
2023-11-14T12:58:00,atd,66.68
2023-11-14T12:59:00,atd,69.94
2023-11-14T13:00:00,atd,64.44
2023-11-14T13:01:00,atd,79.74
2023-11-14T13:02:00,atd,84.11
2023-11-14T13:03:00,atd,80.28
2023-11-14T13:04:00,atd,89.50
2023-11-14T13:05:00,atd,79.80
2023-11-14T13:06:00,atd,75.28
2023-11-14T13:07:00,atd,82.62
2023-11-14T13:08:00,atd,71.18
2023-11-14T13:09:00,atd,79.88
2023-11-14T13:10:00,atd,74.78
2023-11-14T13:11:00,atd,84.16
2023-11-14T13:12:00,atd,75.92
2023-11-14T13:13:00,atd,81.28
2023-11-14T13:14:00,atd,75.29
2023-11-14T13:15:00,atd,78.53
2023-11-14T13:16:00,atd,79.43
2023-11-14T13:17:00,atd,69.69
2023-11-14T13:18:00,atd,76.30